Regional Weather Roundup
Issued by NWS

Home | Current Version | Previous Version | Text Only | Print | Product List | Glossary On
Versions: 1 2 3 4 5 6 7 8 9 10 11 12 13 14 15 16 17 18 19 20 21 22 23 24 25 26 27 28 29 30 31 32 33 34 35 36 37 38 39 40 41 42 43 44 45 46 47 48 49 50
000
ASUS43 KDTX 040410
RWRMI
MICHIGAN HOURLY REGIONAL WEATHER ROUNDUP
NATIONAL WEATHER SERVICE DETROIT/PONTIAC MI
1200 AM EDT SAT JUL 04 2015

NOTE: "FAIR" INDICATES FEW OR NO CLOUDS BELOW 12,000 FEET WITH NO
SIGNIFICANT WEATHER AND/OR OBSTRUCTION TO VISIBILITY.

MIZ047>049-052>055-059>063-066>070-074>076-081>083-040500-
SOUTHEAST LOWER MICHIGAN

CITY           SKY/WX    TMP DP  RH WIND       PRES   REMARKS
ADRIAN         CLEAR     60  55  83 CALM      29.95S
ALMA           CLEAR     55  53  95 CALM      29.94S
ANN ARBOR      CLEAR     53  52  96 CALM      29.94S
BAD AXE        CLEAR     53  50  90 CALM      29.94S
CARO           CLEAR     51  50  97 CALM      29.93S
DETROIT CITY   CLEAR     63  53  70 CALM      29.93F
DETROIT        PTCLDY    63  55  75 CALM      29.94F
FLINT          CLEAR     56  49  77 SE5       29.94S
GROSSE ILE     CLEAR     61  55  82 CALM      29.93S
HILLSDALE      CLEAR     59  58  98 CALM      29.95S
HOWELL         CLEAR     57  51  80 CALM      29.94F

CITY           SKY/WX    TMP DP  RH WIND       PRES   REMARKS
JACKSON        CLEAR     57  54  89 CALM      29.94S
LAMBERTVILLE   CLEAR     58  55  88 CALM      29.94S
LANSING        FAIR      59  51  75 CALM      29.95R
LAPEER         FAIR      52  50  91 CALM      29.95S
MASON          CLEAR     54  52  92 CALM      29.94S
MONROE         CLEAR     57  56  97 CALM      29.93S
MT. CLEMENS    CLEAR     60  55  82 S2        29.91S
PONTIAC        PTCLDY    60  53  77 CALM      29.93S
PORT HOPE        N/A     57  52  83 S5        29.92F
PORT HURON     CLEAR     57  55  94 CALM      29.94S FOG
TRI CITIES     CLEAR     64  48  56 SE3       29.94S
MIDLAND        FAIR      55  52  90 CALM      29.93R
TROY           CLEAR     65  51  61 CALM      29.95S
SAGINAW HB     CLEAR     54  46  76 CALM      29.93S
$$
MIZ043>046-050>051-056>058-064>065-071>073-077>080-040500-
SOUTHWEST LOWER MICHIGAN

CITY           SKY/WX    TMP DP  RH WIND       PRES   REMARKS
BATTLE CREEK   CLEAR     60  55  83 W3        29.95R
BENTON HARBOR  CLEAR     57  54  89 CALM      29.94R FOG
BIG RAPIDS     CLEAR     57  51  81 CALM      29.94S
COLDWATER      CLEAR     57  56  95 CALM      29.94S
FREMONT        FAIR      55  51  88 CALM      29.95R
HOLLAND        CLEAR     58  54  86 CALM      29.95R
GRAND RAPIDS   CLEAR     61  52  72 CALM      29.95R
IONIA          FAIR      58  52  80 CALM      29.93S
KALAMAZOO      CLEAR     61  54  77 N3        29.94F
LUDINGTON      PTCLDY    54  51  89 CALM      29.94R
MARSHALL       CLEAR     58  56  91 CALM      29.94S
MOUNT PLEASANT CLEAR     58  52  79 CALM      29.94R
MUSKEGON       CLEAR     57  52  83 CALM      29.94S
SOUTH HAVEN    CLEAR     56  53  92 CALM      29.94S
$$
MIZ016>042-040500-
NORTHERN LOWER MICHIGAN

CITY           SKY/WX    TMP DP  RH WIND       PRES   REMARKS
ALPENA         CLOUDY    63  53  70 CALM      29.92S
BEAVER ISLAND  PTCLDY    61  47  61 SW9       29.89S
BELLAIRE       MOCLDY    56  54  92 CALM      29.92S
CADILLAC       CLOUDY    55  52  89 CALM      29.94S
CHARLEVOIX     CLOUDY    65  49  55 SW9       29.93S
FRANKFORT      MOCLDY    66  41  39 CALM      29.92S
GAYLORD        MOCLDY    61  55  81 CALM      29.93S
GRAYLING       MOCLDY    57  55  90 CALM      29.94S
HARBOR SPRINGS CLOUDY    61  54  75 CALM      29.91S
HOUGHTON LAKE  CLOUDY    58  55  90 CALM      29.94S
MANISTEE       CLEAR    N/A N/A N/A CALM      29.93S
OSCODA         PTCLDY    57  53  88 CALM      29.91F
PELLSTON       CLOUDY    61  53  75 S3        29.90S
ROGERS CITY    CLOUDY    62  57  84 SE3       29.92R
TRAVERSE CITY  PTCLDY    63  50  62 CALM      29.90S
$$
MIZ007>008-015-040500-
EASTERN UPPER MICHIGAN

CITY           SKY/WX    TMP DP  RH WIND       PRES   REMARKS
KINROSS        CLOUDY    61  55  82 CALM      29.89S
MACKINAC ISLAN CLOUDY    62  53  74 SW8       29.89S
NEWBERRY       PTCLDY    54  51  92 SW5       29.88R
S. S. MARIE    PTCLDY    60  53  77 S5        29.88F
MUNISING         N/A     55  53  93 CALM      29.88R
$$
MIZ004>006-011>014-085-040500-
CENTRAL UPPER MICHIGAN

CITY           SKY/WX    TMP DP  RH WIND       PRES   REMARKS
MANISTIQUE     MOCLDY    54  52  93 CALM      29.88S
ESCANABA       MOCLDY    61  59  94 CALM      29.87R
MENOMINEE      CLEAR     64  54  68 W3        29.88S
SAWYER-GWINN   CLEAR     58  56  91 CALM      29.91S
$$
MIZ001>003-009>011-084-040500-
WESTERN UPPER MICHIGAN

CITY           SKY/WX    TMP DP  RH WIND       PRES   REMARKS
IRON MOUNTAIN  CLEAR     62  56  80 CALM      29.89R
HOUGHTON       CLEAR     62  57  83 NE8       29.89R
COPPER HARBOR    N/A     60  57  89 CALM      29.88R
IRONWOOD         N/A     59  59 100 CALM      29.89R VSB 1/2
$$

ABBREVIATIONS USED IN REMARKS
   TC - TEMPERATURE IN CELSIUS
  WCI - WIND CHILL INDEX
   HX - HEAT INDEX
  VSB - VISIBILITY




USA.gov is the U.S. government's official web portal to all federal, state and local government web resources and services.